Back to catalog

STARLINK-6034

AliveCommunicationsSSO
NORAD 56324·PAYLOAD·🇺🇸 United States

Launched Apr 27, 2023 from Vandenberg Space Force Base

Loading…

Next Passes (next 24 hours)

TLE

FreshSource: CelesTrak SupGP

Epoch: Sep 14, 2026, 22:18 UTC

1 56324C 23058H   26257.92965278  .00060804  00000+0  18875-2 0  2573
2 56324  97.2844 254.7065 0001751  85.2054  54.7531 15.33408348    18

Track STARLINK-6034 in real time with AllMySat

Download on the App Store